Home > Weather > Aurich > Past weeks

Flag for Germany Weather for the Past 2 Weeks in Aurich, Lower Saxony, Germany

Now
36 °F

Passing clouds.


Feels Like: 31 °F
Forecast: 32 / 40 °F
Wind: 6 mph from West

Location: Wittmundhaven

Current Time: Feb 12, 2016 at 3:12:55 AM

Latest Report: Feb 12, 2016 at 2:20 AM


Visibility: N/A

Pressure: 29.59 "Hg

Humidity: 93%

Dew point: 34 °F

Location of AurichLocation

Historic Weather in Aurich — Graph

°F

Aurich Temperature Yesterday

Maximum temperature yesterday: 45 °F (at 1:20 PM)
Minimum temperature yesterday: 36 °F (at 10:20 PM)
Average temperature yesterday: 40 °F

High & Low Weather Summary for the Past Weeks

 TemperatureHumidityPressure
High52 °F (Feb 1, 11:46 AM)100% (Feb 1, 12:20 AM)30.21 "Hg (Feb 1, 12:20 AM)
Low34 °F (Feb 4, 10:20 PM)62% (Feb 2, 1:20 PM)28.88 "Hg (Feb 9, 7:20 PM)
Average43 °F84%29.65 "Hg
* Reported Jan 28 1:20 AM — Feb 12 1:20 AM, Aurich, Weather by CustomWeather, © 2016

Note: Actual official high and low records may vary slightly from our data, if they occured in-between our weather recording intervals... More about our weather records

Advertising

Aurich Weather History for the Previous 24 Hours

 ConditionsComfort  
Time TempWeatherWind HumidityBarometerVisibility
1:20 AM
Fri, Feb 12
36 °FPassing clouds.6 mph93%29.59 "HgN/A
12:20 AM34 °FPassing clouds.7 mph93%29.59 "HgN/A
11:20 PM
Thu, Feb 11
36 °FPassing clouds.8 mph93%29.59 "HgN/A
10:20 PM36 °FPassing clouds.7 mph93%29.59 "HgN/A
9:20 PM37 °FPassing clouds.6 mph87%29.59 "HgN/A
8:20 PM37 °FPassing clouds.6 mph87%29.59 "HgN/A
7:20 PM39 °FPassing clouds.7 mph81%29.59 "HgN/A
6:20 PM39 °FPassing clouds.12 mph81%29.59 "HgN/A
5:20 PM41 °FScattered clouds.10 mph81%29.56 "HgN/A
4:20 PM41 °FScattered clouds.13 mph81%29.56 "HgN/A
3:20 PM43 °FScattered clouds.23 mph76%29.53 "HgN/A
2:20 PM45 °FScattered clouds.22 mph71%29.53 "HgN/A
1:20 PM45 °FScattered clouds.20 mph66%29.53 "HgN/A
12:20 PM43 °FScattered clouds.15 mph76%29.53 "HgN/A
11:20 AM41 °FScattered clouds.15 mph81%29.53 "HgN/A
10:20 AM39 °FScattered clouds.13 mph87%29.50 "HgN/A
9:20 AM37 °FScattered clouds.13 mph87%29.50 "HgN/A
8:20 AM37 °FPartly sunny.13 mph87%29.50 "HgN/A
7:20 AM37 °FPassing clouds.10 mph87%29.47 "HgN/A
6:20 AM37 °FPassing clouds.10 mph87%29.47 "HgN/A
5:20 AM39 °FPassing clouds.10 mph81%29.45 "HgN/A
4:20 AM39 °FPassing clouds.13 mph87%29.45 "HgN/A
3:20 AM41 °FPartly cloudy.14 mph81%29.42 "Hg5 mi
Weather by CustomWeather, © 2016

See weather overviewHow to use our weather pages